This is the latest recevied weather packets stored in our database for station/object N8JE-13. If no packets are shown the sender has not sent any weather packets the latest 10 day(s).
| Time | Temp. | Humidity | Pressure | Rain* | Wind** | Luminosity | Snow |
|---|---|---|---|---|---|---|---|
| 1778044851 | 7.78° C | 94% | 1007.5 hPa | 2.03 mm | - | - | - |
| 1778044551 | 7.78° C | 93% | 1007.4 hPa | 2.03 mm | - | - | - |
| 1778044251 | 7.78° C | 94% | 1007.2 hPa | 1.52 mm | - | - | - |
| 1778043950 | 8.33° C | 94% | 1007.1 hPa | 1.52 mm | - | - | - |
| 1778043651 | 8.33° C | 94% | 1006.9 hPa | 1.52 mm | - | - | - |
| 1778043351 | 8.33° C | 93% | 1006.9 hPa | 0 mm | - | - | - |
| 1778043052 | 8.89° C | 94% | 1006.9 hPa | 0 mm | - | - | - |
| 1778042752 | 8.89° C | 94% | 1007 hPa | 0 mm | - | - | - |
| 1778042451 | 8.89° C | 94% | 1007.1 hPa | 0 mm | - | - | - |
| 1778042151 | 8.89° C | 94% | 1007.1 hPa | 0 mm | - | - | - |
| 1778041851 | 8.89° C | 94% | 1007.2 hPa | 0 mm | - | - | - |
| 1778041551 | 8.89° C | 94% | 1007.3 hPa | 0 mm | - | - | - |
| 1778041251 | 8.89° C | 94% | 1007.1 hPa | 0 mm | - | - | - |
| 1778040951 | 8.89° C | 94% | 1007 hPa | 0 mm | - | - | - |
| 1778040651 | 8.89° C | 94% | 1006.9 hPa | 0 mm | - | - | - |
| 1778040350 | 8.89° C | 94% | 1006.8 hPa | 0 mm | - | - | - |
| 1778040050 | 9.44° C | 94% | 1006.8 hPa | 0 mm | - | - | - |
| 1778039750 | 9.44° C | 94% | 1006.6 hPa | 0.51 mm | - | - | - |
| 1778039451 | 9.44° C | 94% | 1006.7 hPa | 0.76 mm | - | - | - |
| 1778039151 | 9.44° C | 94% | 1006.7 hPa | 1.02 mm | - | - | - |
| 1778038850 | 9.44° C | 94% | 1006.7 hPa | 1.27 mm | - | - | - |
| 1778038552 | 9.44° C | 94% | 1006.7 hPa | 1.78 mm | - | - | - |
| 1778038252 | 9.44° C | 95% | 1006.7 hPa | 2.29 mm | - | - | - |
| 1778037952 | 9.44° C | 94% | 1006.6 hPa | 2.79 mm | - | - | - |
| 1778037652 | 9.44° C | 94% | 1006.8 hPa | 3.3 mm | - | - | - |
* Rain latest hour (hover to see other rain measurements)
** Current wind speed in m/s (hover to see current wind gust speed)